Time,TemperatureF,DewpointF,PressureIn,WindDirection,WindDirectionDegrees,WindSpeedMPH,WindSpeedGustMPH,Humidity,HourlyPrecipIn,Conditions,Clouds,dailyrainin,SoftwareType,DateUTC
2013-02-20 00:02:00,35.0,-99.9,-100.00,North,2,4.0,12.0,-999,0.00,,,0.14,,2013-02-20 05:02:00,
2013-02-20 00:12:00,35.0,-99.9,-100.00,North,2,4.0,12.0,-999,0.00,,,0.14,,2013-02-20 05:12:00,
2013-02-20 00:23:00,34.0,-99.9,-100.00,North,1,3.0,13.0,-999,0.00,,,0.14,,2013-02-20 05:23:00,
2013-02-20 00:32:00,33.0,-99.9,-100.00,North,1,2.0,6.0,-999,0.00,,,0.14,,2013-02-20 05:32:00,
2013-02-20 00:43:00,33.0,-99.9,-100.00,North,1,2.0,6.0,-999,0.00,,,0.14,,2013-02-20 05:43:00,
2013-02-20 00:52:00,32.0,-99.9,-100.00,North,1,1.0,10.0,-999,0.00,,,0.14,,2013-02-20 05:52:00,
2013-02-20 01:02:00,32.0,-99.9,-100.00,North,1,3.0,9.0,-999,0.00,,,0.14,,2013-02-20 06:02:00,
2013-02-20 01:12:00,32.0,-99.9,-100.00,North,1,3.0,9.0,-999,0.00,,,0.14,,2013-02-20 06:12:00,
2013-02-20 01:22:00,32.0,-99.9,-100.00,North,2,4.0,12.0,-999,0.00,,,0.14,,2013-02-20 06:22:00,
2013-02-20 01:32:00,32.0,-99.9,-100.00,North,2,4.0,12.0,-999,0.00,,,0.14,,2013-02-20 06:32:00,
2013-02-20 01:42:00,32.0,-99.9,-100.00,North,2,4.0,12.0,-999,0.00,,,0.14,,2013-02-20 06:42:00,
2013-02-20 01:52:00,32.0,-99.9,-100.00,North,1,3.0,12.0,-999,0.00,,,0.14,,2013-02-20 06:52:00,
2013-02-20 02:02:00,32.0,-99.9,-100.00,North,2,4.0,15.0,-999,0.00,,,0.14,,2013-02-20 07:02:00,
2013-02-20 02:11:00,32.0,-99.9,-100.00,North,2,4.0,15.0,-999,0.00,,,0.14,,2013-02-20 07:11:00,
2013-02-20 02:22:00,32.0,-99.9,-100.00,North,2,4.0,12.0,-999,0.00,,,0.14,,2013-02-20 07:22:00,
2013-02-20 02:32:00,31.0,-99.9,-100.00,North,1,2.0,10.0,-999,0.00,,,0.14,,2013-02-20 07:32:00,
2013-02-20 02:42:00,31.0,-99.9,-100.00,North,1,2.0,10.0,-999,0.00,,,0.14,,2013-02-20 07:42:00,
2013-02-20 02:52:00,31.0,-99.9,-100.00,North,3,2.0,12.0,-999,0.00,,,0.14,,2013-02-20 07:52:00,
2013-02-20 03:05:00,30.0,-99.9,-100.00,North,1,5.0,10.0,-999,0.00,,,0.14,,2013-02-20 08:05:00,
2013-02-20 03:11:00,30.0,-99.9,-100.00,North,1,5.0,10.0,-999,0.00,,,0.14,,2013-02-20 08:11:00,
2013-02-20 03:22:00,30.0,-99.9,-100.00,North,1,2.0,9.0,-999,0.00,,,0.14,,2013-02-20 08:22:00,
2013-02-20 03:32:00,30.0,-99.9,-100.00,North,2,3.0,10.0,-999,0.00,,,0.14,,2013-02-20 08:32:00,
2013-02-20 03:42:00,30.0,-99.9,-100.00,North,2,3.0,10.0,-999,0.00,,,0.14,,2013-02-20 08:42:00,
2013-02-20 03:52:00,30.0,-99.9,-100.00,North,1,3.0,13.0,-999,0.00,,,0.14,,2013-02-20 08:52:00,
2013-02-20 04:02:00,30.0,-99.9,-100.00,North,2,2.0,15.0,-999,0.00,,,0.14,,2013-02-20 09:02:00,
2013-02-20 04:11:00,30.0,-99.9,-100.00,North,2,2.0,15.0,-999,0.00,,,0.14,,2013-02-20 09:11:00,
2013-02-20 04:22:00,29.0,-99.9,-100.00,North,2,3.0,8.0,-999,0.00,,,0.14,,2013-02-20 09:22:00,
2013-02-20 04:32:00,29.0,-99.9,-100.00,North,2,4.0,9.0,-999,0.00,,,0.14,,2013-02-20 09:32:00,
2013-02-20 04:42:00,29.0,-99.9,-100.00,North,2,4.0,9.0,-999,0.00,,,0.14,,2013-02-20 09:42:00,
2013-02-20 04:52:00,29.0,-99.9,-100.00,North,2,5.0,14.0,-999,0.00,,,0.14,,2013-02-20 09:52:00,
2013-02-20 05:01:00,30.0,-99.9,-100.00,North,1,3.0,12.0,-999,0.00,,,0.14,,2013-02-20 10:01:00,
2013-02-20 05:12:00,30.0,-99.9,-100.00,North,1,3.0,12.0,-999,0.00,,,0.14,,2013-02-20 10:12:00,
2013-02-20 05:22:00,30.0,-99.9,-100.00,North,2,7.0,15.0,-999,0.00,,,0.14,,2013-02-20 10:22:00,
2013-02-20 05:32:00,30.0,-99.9,-100.00,North,2,7.0,15.0,-999,0.00,,,0.14,,2013-02-20 10:32:00,
2013-02-20 05:42:00,30.0,-99.9,-100.00,North,2,7.0,15.0,-999,0.00,,,0.14,,2013-02-20 10:42:00,
2013-02-20 05:52:00,30.0,-99.9,-100.00,North,1,7.0,12.0,-999,0.00,,,0.14,,2013-02-20 10:52:00,
2013-02-20 06:02:00,30.0,-99.9,-100.00,North,2,5.0,13.0,-999,0.00,,,0.14,,2013-02-20 11:02:00,
2013-02-20 06:11:00,30.0,-99.9,-100.00,North,2,5.0,13.0,-999,0.00,,,0.14,,2013-02-20 11:11:00,
2013-02-20 06:22:00,30.0,-99.9,-100.00,North,2,4.0,15.0,-999,0.00,,,0.14,,2013-02-20 11:22:00,
2013-02-20 06:32:00,29.0,-99.9,-100.00,North,2,3.0,8.0,-999,0.00,,,0.14,,2013-02-20 11:32:00,
2013-02-20 06:42:00,29.0,-99.9,-100.00,North,2,3.0,8.0,-999,0.00,,,0.14,,2013-02-20 11:42:00,
2013-02-20 06:52:00,29.0,-99.9,-100.00,North,2,5.0,10.0,-999,0.00,,,0.14,,2013-02-20 11:52:00,
2013-02-20 07:02:00,29.0,-99.9,-100.00,North,1,4.0,12.0,-999,0.00,,,0.14,,2013-02-20 12:02:00,
2013-02-20 07:12:00,29.0,-99.9,-100.00,North,1,4.0,12.0,-999,0.00,,,0.14,,2013-02-20 12:12:00,
2013-02-20 07:22:00,29.0,-99.9,-100.00,North,1,5.0,15.0,-999,0.00,,,0.14,,2013-02-20 12:22:00,
2013-02-20 07:32:00,29.0,-99.9,-100.00,North,2,5.0,15.0,-999,0.00,,,0.14,,2013-02-20 12:32:00,
2013-02-20 07:42:00,29.0,-99.9,-100.00,North,2,5.0,15.0,-999,0.00,,,0.14,,2013-02-20 12:42:00,
2013-02-20 07:53:00,29.0,-99.9,-100.00,North,1,5.0,17.0,-999,0.00,,,0.14,,2013-02-20 12:53:00,
2013-02-20 08:02:00,28.0,-99.9,-100.00,North,2,7.0,13.0,-999,0.00,,,0.14,,2013-02-20 13:02:00,
2013-02-20 08:12:00,28.0,-99.9,-100.00,North,2,7.0,13.0,-999,0.00,,,0.14,,2013-02-20 13:12:00,
2013-02-20 08:22:00,28.0,-99.9,-100.00,North,1,3.0,16.0,-999,0.00,,,0.14,,2013-02-20 13:22:00,
2013-02-20 08:32:00,29.0,-99.9,-100.00,North,1,5.0,13.0,-999,0.00,,,0.14,,2013-02-20 13:32:00,
2013-02-20 08:42:00,29.0,-99.9,-100.00,North,1,5.0,13.0,-999,0.00,,,0.14,,2013-02-20 13:42:00,
2013-02-20 08:52:00,29.0,-99.9,-100.00,North,1,5.0,13.0,-999,0.00,,,0.14,,2013-02-20 13:52:00,
2013-02-20 09:01:00,31.0,-99.9,-100.00,North,1,7.0,23.0,-999,0.00,,,0.14,,2013-02-20 14:01:00,
2013-02-20 09:11:00,31.0,-99.9,-100.00,North,1,7.0,23.0,-999,0.00,,,0.14,,2013-02-20 14:11:00,
2013-02-20 09:22:00,30.0,-99.9,-100.00,North,1,6.0,17.0,-999,0.00,,,0.14,,2013-02-20 14:22:00,
2013-02-20 09:32:00,30.0,-99.9,-100.00,North,1,9.0,20.0,-999,0.00,,,0.14,,2013-02-20 14:32:00,
2013-02-20 09:42:00,30.0,-99.9,-100.00,North,1,9.0,20.0,-999,0.00,,,0.14,,2013-02-20 14:42:00,
2013-02-20 09:52:00,30.0,-99.9,-100.00,North,1,7.0,20.0,-999,0.00,,,0.14,,2013-02-20 14:52:00,
2013-02-20 10:02:00,31.0,-99.9,-100.00,North,1,10.0,20.0,-999,0.00,,,0.14,,2013-02-20 15:02:00,
2013-02-20 10:12:00,31.0,-99.9,-100.00,North,1,10.0,20.0,-999,0.00,,,0.14,,2013-02-20 15:12:00,
2013-02-20 10:22:00,31.0,-99.9,-100.00,North,2,10.0,20.0,-999,0.00,,,0.14,,2013-02-20 15:22:00,
2013-02-20 10:32:00,30.0,-99.9,-100.00,North,2,8.0,16.0,-999,0.00,,,0.14,,2013-02-20 15:32:00,
2013-02-20 10:42:00,30.0,-99.9,-100.00,North,2,8.0,16.0,-999,0.00,,,0.14,,2013-02-20 15:42:00,
2013-02-20 10:52:00,30.0,-99.9,-100.00,North,1,9.0,20.0,-999,0.00,,,0.14,,2013-02-20 15:52:00,
2013-02-20 11:01:00,32.0,-99.9,-100.00,North,1,4.0,17.0,-999,0.00,,,0.14,,2013-02-20 16:01:00,
2013-02-20 11:12:00,32.0,-99.9,-100.00,North,1,4.0,17.0,-999,0.00,,,0.14,,2013-02-20 16:12:00,
2013-02-20 11:22:00,31.0,-99.9,-100.00,North,1,3.0,20.0,-999,0.00,,,0.14,,2013-02-20 16:22:00,
2013-02-20 11:32:00,32.0,-99.9,-100.00,North,2,7.0,16.0,-999,0.00,,,0.14,,2013-02-20 16:32:00,
2013-02-20 11:42:00,32.0,-99.9,-100.00,North,2,7.0,16.0,-999,0.00,,,0.14,,2013-02-20 16:42:00,
2013-02-20 11:52:00,32.0,-99.9,-100.00,North,1,8.0,17.0,-999,0.00,,,0.14,,2013-02-20 16:52:00,
2013-02-20 12:02:00,32.0,-99.9,-100.00,North,1,5.0,13.0,-999,0.00,,,0.14,,2013-02-20 17:02:00,
2013-02-20 12:12:00,31.0,-99.9,-100.00,North,1,6.0,26.0,-999,0.00,,,0.14,,2013-02-20 17:12:00,
2013-02-20 12:22:00,31.0,-99.9,-100.00,North,1,6.0,26.0,-999,0.00,,,0.14,,2013-02-20 17:22:00,
2013-02-20 12:32:00,33.0,-99.9,-100.00,North,1,6.0,15.0,-999,0.00,,,0.14,,2013-02-20 17:32:00,
2013-02-20 12:42:00,33.0,-99.9,-100.00,North,1,6.0,15.0,-999,0.00,,,0.14,,2013-02-20 17:42:00,
2013-02-20 12:52:00,32.0,-99.9,-100.00,North,4,7.0,16.0,-999,0.00,,,0.14,,2013-02-20 17:52:00,
2013-02-20 13:02:00,33.0,-99.9,-100.00,North,1,7.0,18.0,-999,0.00,,,0.14,,2013-02-20 18:02:00,
2013-02-20 13:11:00,33.0,-99.9,-100.00,North,1,7.0,18.0,-999,0.00,,,0.14,,2013-02-20 18:11:00,
2013-02-20 13:22:00,33.0,-99.9,-100.00,North,2,5.0,31.0,-999,0.00,,,0.14,,2013-02-20 18:22:00,
2013-02-20 13:32:00,36.0,-99.9,-100.00,North,2,3.0,13.0,-999,0.00,,,0.13,,2013-02-20 18:32:00,
2013-02-20 13:42:00,36.0,-99.9,-100.00,North,2,3.0,13.0,-999,0.00,,,0.13,,2013-02-20 18:42:00,
2013-02-20 13:52:00,33.0,-99.9,-100.00,North,1,11.0,22.0,-999,0.00,,,0.13,,2013-02-20 18:52:00,
2013-02-20 14:02:00,35.0,-99.9,-100.00,North,1,7.0,16.0,-999,0.00,,,0.13,,2013-02-20 19:02:00,
2013-02-20 14:12:00,35.0,-99.9,-100.00,North,1,7.0,16.0,-999,0.00,,,0.13,,2013-02-20 19:12:00,
2013-02-20 14:21:00,35.0,-99.9,-100.00,North,1,7.0,16.0,-999,0.00,,,0.13,,2013-02-20 19:21:00,
2013-02-20 14:32:00,33.0,-99.9,-100.00,North,1,9.0,20.0,-999,0.00,,,0.13,,2013-02-20 19:32:00,
2013-02-20 14:42:00,33.0,-99.9,-100.00,North,1,9.0,20.0,-999,0.00,,,0.13,,2013-02-20 19:42:00,
2013-02-20 14:52:00,31.0,-99.9,-100.00,North,3,10.0,18.0,-999,0.00,,,0.12,,2013-02-20 19:52:00,
2013-02-20 15:01:00,29.0,-99.9,-100.00,North,1,6.0,20.0,-999,0.00,,,0.12,,2013-02-20 20:01:00,
2013-02-20 15:11:00,34.0,-99.9,-100.00,North,1,3.0,14.0,-999,0.00,,,0.12,,2013-02-20 20:11:00,
2013-02-20 15:21:00,34.0,-99.9,-100.00,North,1,3.0,14.0,-999,0.00,,,0.12,,2013-02-20 20:21:00,
2013-02-20 15:31:00,32.0,-99.9,-100.00,North,1,7.0,17.0,-999,0.00,,,0.12,,2013-02-20 20:31:00,
2013-02-20 15:41:00,32.0,-99.9,-100.00,North,1,7.0,17.0,-999,0.00,,,0.12,,2013-02-20 20:41:00,
2013-02-20 15:52:00,32.0,-99.9,-100.00,North,1,8.0,22.0,-999,0.00,,,0.12,,2013-02-20 20:52:00,
2013-02-20 16:02:00,30.0,-99.9,-100.00,North,3,9.0,17.0,-999,0.00,,,0.11,,2013-02-20 21:02:00,
2013-02-20 16:11:00,30.0,-99.9,-100.00,North,3,9.0,17.0,-999,0.00,,,0.11,,2013-02-20 21:11:00,
2013-02-20 16:21:00,29.0,-99.9,-100.00,North,1,9.0,15.0,-999,0.00,,,0.11,,2013-02-20 21:21:00,
2013-02-20 16:32:00,30.0,-99.9,-100.00,North,1,6.0,13.0,-999,0.00,,,0.11,,2013-02-20 21:32:00,
2013-02-20 16:42:00,30.0,-99.9,-100.00,North,1,6.0,13.0,-999,0.00,,,0.11,,2013-02-20 21:42:00,
2013-02-20 16:52:00,30.0,-99.9,-100.00,North,2,6.0,12.0,-999,0.00,,,0.10,,2013-02-20 21:52:00,
2013-02-20 17:02:00,29.0,-99.9,-100.00,North,1,5.0,22.0,-999,0.00,,,0.10,,2013-02-20 22:02:00,
2013-02-20 17:11:00,29.0,-99.9,-100.00,North,1,5.0,22.0,-999,0.00,,,0.10,,2013-02-20 22:11:00,
2013-02-20 17:21:00,29.0,-99.9,-100.00,North,1,5.0,22.0,-999,0.00,,,0.10,,2013-02-20 22:21:00,
2013-02-20 17:32:00,28.0,-99.9,-100.00,North,2,9.0,20.0,-999,0.00,,,0.10,,2013-02-20 22:32:00,
2013-02-20 17:43:00,28.0,-99.9,-100.00,North,2,9.0,20.0,-999,0.00,,,0.10,,2013-02-20 22:43:00,
2013-02-20 17:52:00,27.0,-99.9,-100.00,North,1,7.0,20.0,-999,0.00,,,0.08,,2013-02-20 22:52:00,
2013-02-20 18:01:00,27.0,-99.9,-100.00,North,1,5.0,16.0,-999,0.00,,,0.07,,2013-02-20 23:01:00,
2013-02-20 18:12:00,27.0,-99.9,-100.00,North,1,5.0,16.0,-999,0.00,,,0.07,,2013-02-20 23:12:00,
2013-02-20 18:22:00,27.0,-99.9,-100.00,North,1,5.0,16.0,-999,0.00,,,0.07,,2013-02-20 23:22:00,
2013-02-20 18:32:00,26.0,-99.9,-100.00,North,1,6.0,18.0,-999,0.00,,,0.05,,2013-02-20 23:32:00,
2013-02-20 18:43:00,26.0,-99.9,-100.00,North,1,6.0,18.0,-999,0.00,,,0.05,,2013-02-20 23:43:00,
2013-02-20 18:53:00,26.0,-99.9,-100.00,North,1,6.0,25.0,-999,0.00,,,0.05,,2013-02-20 23:53:00,
2013-02-20 19:03:00,25.0,-99.9,-100.00,North,1,9.0,22.0,-999,0.00,,,0.04,,2013-02-21 00:03:00,
2013-02-20 19:11:00,25.0,-99.9,-100.00,North,1,9.0,22.0,-999,0.00,,,0.04,,2013-02-21 00:11:00,
2013-02-20 19:22:00,25.0,-99.9,-100.00,North,1,10.0,20.0,-999,0.00,,,0.04,,2013-02-21 00:22:00,
2013-02-20 19:32:00,24.0,-99.9,-100.00,North,1,3.0,18.0,-999,0.00,,,0.04,,2013-02-21 00:32:00,
2013-02-20 19:42:00,24.0,-99.9,-100.00,North,1,3.0,18.0,-999,0.00,,,0.04,,2013-02-21 00:42:00,
2013-02-20 19:53:00,24.0,-99.9,-100.00,North,1,9.0,18.0,-999,0.00,,,0.04,,2013-02-21 00:53:00,
2013-02-20 20:01:00,24.0,-99.9,-100.00,North,1,6.0,16.0,-999,0.00,,,0.04,,2013-02-21 01:01:00,
2013-02-20 20:12:00,24.0,-99.9,-100.00,North,1,6.0,16.0,-999,0.00,,,0.04,,2013-02-21 01:12:00,
2013-02-20 20:22:00,24.0,-99.9,-100.00,North,1,6.0,15.0,-999,0.00,,,0.04,,2013-02-21 01:22:00,
2013-02-20 20:32:00,23.0,-99.9,-100.00,North,1,8.0,18.0,-999,0.00,,,0.01,,2013-02-21 01:32:00,
2013-02-20 20:42:00,23.0,-99.9,-100.00,North,1,8.0,18.0,-999,0.00,,,0.01,,2013-02-21 01:42:00,
2013-02-20 20:52:00,23.0,-99.9,-100.00,North,1,4.0,12.0,-999,0.00,,,0.00,,2013-02-21 01:52:00,
2013-02-20 21:02:00,23.0,-99.9,-100.00,North,2,5.0,10.0,-999,0.00,,,0.00,,2013-02-21 02:02:00,
2013-02-20 21:11:00,23.0,-99.9,-100.00,North,2,5.0,10.0,-999,0.00,,,0.00,,2013-02-21 02:11:00,
2013-02-20 21:22:00,23.0,-99.9,-100.00,North,2,5.0,10.0,-999,0.00,,,0.00,,2013-02-21 02:22:00,
2013-02-20 21:32:00,23.0,-99.9,-100.00,North,1,2.0,10.0,-999,0.00,,,0.00,,2013-02-21 02:32:00,
2013-02-20 21:42:00,23.0,-99.9,-100.00,North,1,2.0,10.0,-999,0.00,,,0.00,,2013-02-21 02:42:00,
2013-02-20 21:52:00,23.0,-99.9,-100.00,North,1,2.0,10.0,-999,0.00,,,0.00,,2013-02-21 02:52:00,
2013-02-20 22:02:00,23.0,-99.9,-100.00,North,2,6.0,12.0,-999,0.00,,,0.00,,2013-02-21 03:02:00,
2013-02-20 22:12:00,23.0,-99.9,-100.00,North,2,6.0,12.0,-999,0.00,,,0.00,,2013-02-21 03:12:00,
2013-02-20 22:22:00,23.0,-99.9,-100.00,North,2,6.0,12.0,-999,0.00,,,0.00,,2013-02-21 03:22:00,
2013-02-20 22:32:00,23.0,-99.9,-100.00,North,2,8.0,12.0,-999,0.00,,,0.00,,2013-02-21 03:32:00,
2013-02-20 22:42:00,23.0,-99.9,-100.00,North,2,8.0,12.0,-999,0.00,,,0.00,,2013-02-21 03:42:00,
2013-02-20 22:52:00,23.0,-99.9,-100.00,North,1,7.0,20.0,-999,0.00,,,0.00,,2013-02-21 03:52:00,
2013-02-20 23:01:00,23.0,-99.9,-100.00,North,1,6.0,20.0,-999,0.00,,,0.00,,2013-02-21 04:01:00,
2013-02-20 23:11:00,23.0,-99.9,-100.00,North,1,6.0,20.0,-999,0.00,,,0.00,,2013-02-21 04:11:00,
2013-02-20 23:22:00,23.0,-99.9,-100.00,North,1,9.0,20.0,-999,0.00,,,0.00,,2013-02-21 04:22:00,
2013-02-20 23:32:00,23.0,-99.9,-100.00,North,1,5.0,17.0,-999,0.00,,,0.00,,2013-02-21 04:32:00,
2013-02-20 23:42:00,23.0,-99.9,-100.00,North,1,5.0,17.0,-999,0.00,,,0.00,,2013-02-21 04:42:00,
2013-02-20 23:52:00,23.0,-99.9,-100.00,North,1,5.0,13.0,-999,0.00,,,0.00,,2013-02-21 04:52:00,